Location: Huisseau
(47.5933°N, 1.4533°E)
Time: 18:57:45
(UTC+00:00)

CENTAUR R/B - Pass Details

Date: 23 November 2025
Orbit: 633 x 1547 km, 63.4° (Epoch: 06 December)

Event Time Altitude Azimuth Distance (km) Brightness Sun altitude
Exits shadow 04:30:36 48° 265° (W) 1,831 3.4 -26.6°
Maximum altitude 04:31:50 51° 241° (WSW) 1,794 3.4 -26.4°
Drops below altitude 10° 04:40:49 10° 170° (S) 3,718 5.7 -24.8°
Sets 04:44:00 0° 165° (SSE) 4,696 6.3 -24.3°
